Location: Calmejanne
(44.7523°N, 1.9418°E)
Time: 11:10:55
(UTC+00:00)

Cosmos 2061 Rocket - Pass Details

Date: 14 May 2026
Orbit: 966 x 1011 km, 82.9° (Epoch: 6 June)

Event Time Altitude Azimuth Distance (km) Brightness Sun altitude
Exits shadow 20:49:18 - 191° (S) 3,657 6.7 -14.5°
Rises 20:49:20 0° 191° (S) 3,647 6.7 -14.5°
Reaches altitude 10° 20:51:49 10° 193° (SSW) 2,708 6.0 -14.8°
Maximum altitude 20:58:01 76° 279° (W) 1,012 4.2 -15.5°
Drops below altitude 10° 21:04:20 10° 5° (N) 2,754 7.0 -16.3°
Sets 21:06:54 0° 7° (N) 3,713 7.7 -16.6°
